Zurück zum Katalog

STARLINK-31315

AktivKommunikationVLEO
NORAD 58884·PAYLOAD·🇺🇸 United States

Gestartet Jan 29, 2024 von Vandenberg Space Force Base

Loading…

Nächste Überflüge (nächste 24 Stunden)

TLE

AktuellSource: CelesTrak SupGP

Epoche: Sep 14, 2026, 21:11 UTC

1 58884C 24020J   26257.88312500 -.00067484  00000+0 -19936-2 0  2577
2 58884  53.1578 135.8746 0001263  89.6299  17.5242 15.34427772    17

Verfolge STARLINK-31315 in Echtzeit mit AllMySat

Download on the App Store